Theta_e
302 302 303 304 304 303 303 304 305 303 302 303 302 302 302 301 302 302 303 304 303 300 300 300 299 299 299 304 304 310 317 316 316 316 316 316 312 314 310 310 311 310 312 314 316 317 317
304 303 302 301 302 303 303 303 303 303 302 301 301 301 301 301 300 300 301 302 305 302 300 300 300 299 300 308 304 305 305 310 309 312 317 316 312 313 312 312 312 315 315 315 315 316 319
303 303 303 302 303 303 302 302 302 302 301 302 302 301 302 301 301 299 299 301 303 306 300 299 301 300 301 301 303 303 307 312 312 313 317 315 313 314 314 314 316 316 315 312 313 314 322
302 302 303 302 302 302 302 302 303 303 302 302 302 301 302 302 299 298 299 299 301 302 301 300 300 301 304 302 303 303 304 310 316 316 317 315 313 311 314 315 314 314 312 314 314 317 318
301 302 302 302 302 302 301 302 301 300 301 303 303 302 303 303 303 300 299 298 299 301 301 301 300 302 304 303 305 310 310 305 317 317 315 316 314 314 314 313 313 310 312 312 313 313 318
301 301 301 301 302 302 302 302 303 303 303 303 303 303 303 304 304 304 303 300 302 310 305 301 307 307 302 302 309 315 315 316 310 313 313 315 315 310 309 311 314 313 313 312 313 315 319
300 300 300 300 301 300 301 301 300 300 302 302 302 303 303 304 304 304 304 300 303 306 306 309 309 304 306 310 314 315 316 315 312 314 313 314 312 314 312 312 311 311 313 314 311 312 314
299 299 299 299 300 300 301 300 300 300 302 301 302 303 304 304 304 304 303 305 305 304 306 305 305 307 309 313 312 309 310 314 312 312 313 312 314 313 313 312 313 313 313 312 311 312 313
298 299 298 299 299 299 299 299 299 300 300 300 301 303 303 304 303 303 302 303 306 303 307 308 307 305 305 308 309 307 312 313 312 312 314 315 314 313 314 313 313 312 312 313 313 312 314
297 298 297 298 298 298 299 299 298 298 299 300 301 302 303 303 302 303 305 306 304 303 309 307 310 308 306 306 311 306 309 313 312 312 312 314 314 313 313 314 313 314 312 313 314 314 316
298 298 297 297 298 297 298 298 297 297 298 299 300 302 303 303 303 303 303 303 302 308 302 303 309 307 307 307 307 309 308 312 311 313 314 315 314 314 314 314 313 314 313 314 314 314 315
297 297 297 297 297 297 297 297 296 297 298 299 299 302 303 303 303 303 302 302 304 313 312 306 308 310 311 310 309 310 311 311 313 313 314 314 315 313 315 314 313 314 315 315 315 314 316
296 296 297 296 297 297 296 296 296 297 298 298 299 301 303 303 303 303 302 302 310 311 307 304 305 308 310 310 309 309 309 309 309 312 312 313 314 314 314 315 314 314 314 316 317 319 319
296 296 296 296 296 296 296 296 296 297 298 298 299 301 302 304 304 303 302 304 308 309 308 307 306 306 308 309 309 309 307 306 308 312 312 313 313 314 313 315 315 314 314 316 320 319 317
296 296 295 296 296 296 296 296 296 297 297 298 299 301 302 303 304 303 302 303 306 308 307 307 306 306 308 308 311 312 309 307 308 312 314 314 314 313 313 314 315 315 315 314 317 319 320
295 295 295 296 296 296 295 295 296 296 296 298 299 299 301 303 304 303 303 303 305 308 305 306 307 308 308 308 309 309 314 314 312 309 312 314 315 315 315 314 313 314 314 318 316 321 323
294 294 295 296 295 295 294 294 295 296 297 299 299 300 301 303 303 302 304 303 302 302 302 306 307 308 308 307 308 308 309 314 313 317 311 311 313 314 314 315 314 314 315 317 316 315 318
294 294 294 295 295 295 294 294 295 296 297 299 299 301 302 304 303 300 303 303 302 302 302 306 306 306 307 306 306 308 310 313 307 315 316 315 312 312 312 312 314 314 314 316 317 318 316
294 294 294 295 294 294 294 293 295 296 297 299 300 301 302 304 304 304 304 303 302 302 304 305 306 305 305 305 304 307 309 310 308 315 318 317 317 314 315 314 313 313 312 314 316 314 316
294 294 294 295 294 294 294 293 295 296 297 298 299 301 301 303 303 303 304 303 303 302 301 303 304 304 305 305 306 307 307 308 308 314 318 316 318 318 318 318 318 318 316 313 314 315 315
294 293 293 293 293 292 293 293 294 295 297 298 299 299 301 303 302 303 303 304 303 303 302 303 303 304 304 304 304 305 306 307 306 310 316 316 316 319 319 318 318 316 316 315 315 314 316
293 294 295 295 295 295 295 292 294 295 297 298 298 300 302 302 303 304 303 303 304 303 303 303 303 304 303 304 304 304 304 304 306 309 313 315 316 315 316 317 313 315 316 314 314 314 315
295 296 296 297 298 298 297 295 294 295 297 299 299 299 302 303 304 304 304 304 303 303 303 303 303 303 303 303 303 304 304 304 304 306 307 314 314 312 314 313 314 315 313 311 313 314 315
296 296 297 298 298 298 298 297 295 295 297 298 299 299 301 303 303 304 304 303 304 303 303 304 303 302 303 304 304 304 304 304 304 306 309 314 313 310 313 311 314 312 311 314 313 313 310
297 297 297 298 298 298 298 298 296 296 297 298 298 300 301 302 303 304 304 303 303 303 304 303 303 303 303 304 305 305 303 309 308 308 310 312 311 309 309 311 312 311 314 315 313 312 309
297 297 298 298 298 298 298 297 297 297 298 298 298 299 301 302 302 304 304 303 303 303 303 303 303 303 303 303 306 308 307 308 310 311 310 309 309 310 311 310 310 307 309 313 313 312 314
298 298 298 298 299 298 298 298 298 298 298 298 299 298 301 300 302 303 304 304 303 303 302 302 303 303 304 303 307 308 309 306 308 311 312 310 312 314 312 313 309 309 312 314 315 308 312
298 299 300 299 299 299 298 298 298 299 299 299 298 299 299 300 302 302 303 304 303 303 302 302 304 302 300 303 304 304 301 305 306 308 310 310 310 308 312 314 310 312 314 314 312 313 313
300 300 300 301 299 300 300 299 298 298 299 299 299 299 300 300 301 302 304 303 304 303 303 304 304 302 302 301 299 301 301 298 305 307 308 309 307 308 309 309 309 315 314 313 313 313 313
Wind_Speed
14 12 11 11 12 13 14 16 17 19 21 21 21 22 25 25 26 27 27 29 33 28 26 21 21 23 22 11 18 10 8 11 9 11 11 10 11 7 4 4 6 5 4 7 11 18 10
12 14 13 13 13 13 14 15 17 18 20 21 22 20 21 24 25 25 26 27 29 36 29 24 19 22 16 9 8 12 20 24 19 14 14 12 6 11 5 5 5 5 6 13 9 6 8
14 14 13 13 13 14 15 16 17 18 19 20 22 22 22 23 25 24 23 26 27 31 31 25 19 19 18 31 17 22 12 15 16 17 16 13 11 6 2 2 7 4 4 6 6 3 4
15 15 15 15 14 14 15 16 16 17 19 20 21 21 23 25 25 24 25 23 22 26 31 27 20 14 14 24 23 26 16 20 15 18 13 11 6 7 5 4 2 1 3 3 4 5 2
17 16 16 16 15 15 15 16 17 17 18 19 20 21 22 24 25 27 28 25 25 24 31 22 16 10 16 15 16 5 9 19 18 16 11 5 10 5 5 3 3 5 3 4 7 4 4
18 18 17 18 16 15 16 17 16 16 18 20 21 23 23 23 23 26 30 29 13 7 7 6 7 5 20 17 6 4 7 10 12 17 9 10 7 4 3 4 7 5 4 4 6 2 2
19 19 19 18 19 19 17 19 19 17 18 20 21 22 22 22 23 25 29 26 7 5 8 11 8 11 8 8 8 5 1 0 11 14 7 7 4 12 9 7 5 5 4 4 5 4 3
19 21 20 19 20 18 15 18 17 17 18 20 20 20 20 20 22 22 22 5 4 11 15 27 29 37 38 17 14 21 13 8 8 7 6 3 17 6 8 7 6 4 3 5 8 7 6
20 20 20 20 19 19 19 21 19 19 19 18 19 19 18 18 19 21 13 4 5 21 7 15 23 24 32 25 26 39 15 10 5 6 11 10 3 13 10 7 7 5 6 4 8 6 4
22 22 22 21 21 20 21 21 21 20 19 18 19 17 16 15 16 8 8 1 13 19 5 8 6 7 13 14 9 37 22 16 5 13 7 7 6 5 4 9 8 9 11 8 6 1 4
22 23 23 21 22 20 22 21 20 19 18 18 18 16 15 13 15 16 15 17 14 4 5 1 3 2 10 17 6 6 34 21 9 7 7 8 7 10 5 6 7 8 8 8 5 5 1
23 22 23 25 22 21 24 22 19 20 19 18 17 16 14 17 18 17 17 16 10 2 7 7 0 3 4 8 4 6 14 10 16 4 2 8 3 7 11 6 11 4 3 3 2 3 3
25 23 25 25 22 25 22 19 19 19 18 16 17 17 16 18 15 13 11 13 2 6 4 5 5 2 8 4 5 4 7 9 8 7 6 2 5 2 3 5 3 4 4 1 2 1 5
26 25 26 26 24 24 21 20 19 19 16 18 18 17 18 20 20 14 8 1 10 2 6 7 5 15 4 4 5 7 6 6 7 5 5 8 3 11 6 8 6 6 7 5 6 4 4
28 29 27 25 25 23 22 22 20 18 16 17 19 19 21 23 18 11 4 5 2 1 4 8 11 4 5 6 4 1 6 7 8 6 6 6 5 2 5 8 12 4 5 6 6 1 2
29 29 27 27 27 26 25 24 20 18 17 16 20 20 27 21 18 14 4 7 5 2 5 5 4 6 6 8 7 6 2 5 3 9 3 6 1 4 2 5 3 7 6 4 1 5 5
30 29 29 29 28 28 27 24 21 18 18 16 18 10 17 16 19 13 6 6 5 24 13 4 3 4 4 5 5 6 7 6 12 5 3 2 3 4 3 4 7 3 3 1 4 5 4
32 32 31 32 31 31 27 24 22 18 18 18 17 6 14 20 11 4 7 5 5 14 11 6 3 4 3 6 6 6 6 4 21 7 4 2 3 6 14 7 2 4 7 8 5 5 3
34 33 33 33 34 31 29 26 24 22 19 19 9 11 14 34 9 7 4 6 7 3 4 2 2 4 4 2 1 3 5 6 22 10 2 3 2 2 6 3 3 2 5 6 3 2 6
34 32 34 35 36 33 31 30 27 26 24 23 8 4 9 25 9 14 9 9 8 12 12 3 3 2 2 4 2 4 6 5 18 8 9 6 2 4 3 0 2 6 7 5 7 5 3
35 34 34 35 34 33 34 33 31 29 26 25 13 6 8 6 9 10 14 10 12 9 8 5 3 6 1 4 6 4 5 5 7 6 5 3 3 2 2 7 4 5 9 8 6 7 9
36 38 37 37 36 36 33 35 34 32 30 31 9 6 9 2 16 13 14 14 16 14 10 5 6 3 4 6 7 4 4 3 4 5 6 3 1 3 3 3 5 3 6 8 8 6 7
41 40 39 40 41 42 39 38 37 35 33 27 27 21 8 13 7 14 12 12 18 11 8 20 7 8 8 14 15 21 23 19 10 4 5 4 4 2 2 4 7 4 1 3 7 8 5
38 39 39 38 38 42 44 41 42 42 42 40 19 17 10 5 9 13 16 19 15 20 13 9 22 11 7 3 15 13 17 15 13 12 10 4 2 2 2 3 3 4 0 8 2 4 11
37 36 37 34 31 31 34 39 41 43 44 44 34 22 18 9 8 13 17 19 24 21 17 18 21 16 10 5 3 4 3 3 6 10 10 8 4 3 3 2 6 5 3 1 4 17 12
36 37 36 34 32 29 32 36 39 41 42 43 43 37 19 6 13 14 14 22 11 12 12 19 32 17 14 3 1 3 3 4 2 1 5 5 3 2 2 1 4 5 3 5 6 8 2
36 36 36 34 31 31 30 35 37 39 40 42 36 45 24 7 13 26 9 11 16 13 4 6 9 7 10 2 3 3 3 2 3 5 3 4 1 8 2 3 8 6 5 2 4 6 6
31 29 27 28 29 30 31 30 31 34 37 42 42 32 42 9 10 28 25 16 14 21 6 8 3 4 3 6 3 4 3 4 3 4 5 5 6 3 4 3 8 8 4 3 6 7 8
24 24 25 26 26 30 32 31 33 32 30 37 25 35 34 23 5 14 30 30 34 34 21 20 11 7 11 3 3 2 1 1 4 2 1 2 6 5 8 7 3 2 6 16 18 18 13
Wind_Direction
292 298 298 302 303 305 310 314 315 314 314 315 312 310 307 306 302 305 306 306 309 308 305 308 310 310 319 299 259 255 189 166 183 197 201 194 180 185 198 202 167 208 260 239 252 293 248
312 308 311 309 310 312 312 312 313 315 315 315 313 312 308 306 306 306 306 307 300 307 306 304 302 301 311 277 285 267 245 241 239 226 208 207 188 209 235 220 182 215 251 285 287 257 225
301 301 299 291 298 302 305 309 309 312 311 313 314 317 315 309 308 306 305 302 300 293 309 296 290 292 284 264 285 279 257 245 227 216 210 214 211 179 177 238 242 245 282 308 274 231 231
297 296 298 299 294 293 298 298 302 306 311 313 315 315 317 318 313 310 306 302 291 298 296 287 275 273 259 286 279 267 256 242 214 198 208 205 207 216 205 261 359 311 60 1 297 130 276
292 292 298 296 302 305 301 303 306 312 314 316 314 314 315 317 321 319 314 309 313 288 287 275 257 238 266 272 271 272 243 235 216 206 219 181 188 191 165 141 18 3 238 243 311 235 113
289 293 292 292 296 288 295 295 299 302 304 304 307 312 313 316 322 324 320 325 316 313 282 214 197 246 251 249 252 257 298 238 217 217 217 185 184 138 99 131 213 197 226 234 246 229 66
283 287 286 290 293 295 278 286 292 294 301 305 305 308 309 315 318 321 330 344 352 266 302 244 219 235 254 248 269 208 41 241 173 182 178 190 157 200 180 178 157 151 183 234 253 221 340
282 284 286 289 290 292 296 292 293 288 294 299 305 308 311 315 312 319 329 16 66 349 299 286 261 252 246 246 307 256 267 189 177 192 151 129 229 167 161 177 167 156 240 265 296 284 180
283 284 288 289 288 292 278 281 280 282 288 294 303 305 309 310 316 319 327 305 271 333 267 282 250 244 245 232 233 257 210 192 175 164 197 204 250 163 173 162 168 203 187 226 230 351 255
281 279 281 281 281 284 286 281 281 283 284 290 291 301 303 307 312 336 355 286 317 331 299 275 232 256 192 190 236 234 225 195 192 190 162 228 234 151 149 199 161 230 195 215 246 80 248
278 279 281 277 278 284 284 282 280 281 286 284 286 291 292 295 290 292 300 310 310 320 324 249 199 343 181 171 332 237 211 196 162 180 155 225 177 194 177 209 156 234 162 190 215 207 323
273 274 275 278 282 277 275 278 277 282 286 278 280 286 285 279 278 298 305 320 308 216 250 312 204 112 164 242 289 32 177 193 193 133 160 212 188 163 217 182 182 124 169 159 108 143 239
272 272 271 276 275 274 279 278 277 281 284 276 278 281 274 272 275 296 310 330 249 230 317 299 354 326 249 225 220 172 170 191 162 166 186 247 201 234 197 117 173 125 103 340 343 339 229
273 269 268 273 271 274 272 272 273 277 275 278 277 280 264 258 267 279 316 31 230 183 270 335 330 303 233 153 238 177 120 190 250 121 135 187 252 179 193 178 176 188 158 158 197 195 245
268 268 270 270 272 271 270 266 267 271 272 272 279 274 264 256 254 247 173 219 246 253 331 337 319 332 343 344 347 168 170 191 202 196 149 170 244 225 200 185 163 201 167 193 95 28 62
268 268 268 267 268 269 265 260 263 264 264 264 276 281 265 256 250 208 199 218 248 308 9 340 340 14 354 346 20 18 87 347 267 203 189 196 228 209 252 111 211 168 166 100 15 175 222
267 265 262 266 268 266 265 255 257 258 260 258 270 262 257 242 230 187 217 194 245 271 293 318 320 306 339 6 335 345 357 43 358 353 197 160 123 270 79 161 177 155 205 97 156 148 192
268 264 261 262 266 267 266 254 253 250 256 250 251 239 229 205 193 209 210 194 231 270 304 252 253 277 300 8 355 343 13 44 354 327 55 332 190 231 242 243 226 166 201 177 183 234 225
267 264 261 262 265 264 263 251 246 244 244 242 236 231 227 194 212 201 140 198 215 278 241 289 307 344 3 335 315 301 347 326 3 6 16 345 25 35 341 348 16 199 213 195 136 107 209
269 264 262 262 263 260 257 248 241 241 240 233 232 215 193 210 214 206 186 191 200 227 251 302 300 343 307 360 358 306 329 311 340 334 352 348 87 117 202 237 207 279 306 265 201 195 219
270 269 267 266 266 263 254 244 237 239 237 232 218 224 197 196 217 202 184 188 201 209 206 193 240 207 18 334 353 309 291 332 333 311 21 36 158 117 219 258 289 289 291 289 224 239 239
271 271 266 264 263 262 258 241 236 236 236 231 219 184 195 269 190 189 194 208 202 207 208 190 225 286 206 216 193 259 278 39 280 340 7 11 190 128 242 267 286 328 290 315 287 237 239
273 267 265 266 263 259 251 243 233 235 233 231 227 223 224 199 187 189 198 191 209 196 228 228 204 225 243 252 249 254 260 257 262 318 326 280 177 148 245 334 319 344 135 314 297 296 289
270 268 269 266 265 260 246 238 231 234 232 226 214 196 207 219 192 204 200 206 202 208 206 204 227 226 244 222 331 296 252 254 257 263 212 278 149 31 222 331 222 237 184 144 72 270 331
270 269 269 266 270 253 234 233 231 231 230 226 217 200 204 229 218 198 198 199 209 216 223 229 229 228 240 302 311 308 342 318 249 228 222 195 165 153 175 206 304 304 193 203 91 301 311
268 272 270 264 260 251 235 231 230 229 227 226 220 212 203 212 215 195 191 190 190 203 214 235 243 250 265 175 203 228 230 229 237 256 136 103 108 146 113 118 250 215 263 178 129 268 52
271 270 268 261 252 242 238 232 228 227 224 220 216 218 211 213 210 190 185 186 178 171 184 183 232 232 196 148 217 216 239 266 253 183 166 142 151 228 182 268 281 240 269 226 124 282 317
271 265 260 254 243 238 234 231 225 220 217 213 213 214 205 189 218 206 200 171 173 176 151 173 126 231 115 176 189 201 178 225 212 181 172 163 161 173 170 231 279 191 155 146 223 273 313
271 264 254 251 240 236 231 225 220 221 214 208 206 204 210 222 238 209 200 211 208 198 187 169 194 157 173 151 196 162 165 65 171 229 71 212 181 186 189 210 243 214 297 302 300 274 260